Location: Bois de la Silve
(44.4667°N, 6.7833°E)
Time: 10:28:08
(UTC+00:00)

Okean 3 - Pass Details

Date: 14 July 2020
Orbit: 576 x 601 km, 82.5° (Epoch: 05 August)

Event Time Altitude Azimuth Distance (km) Brightness Sun altitude
Rises 01:50:48 0° 347° (NNW) 2,803 7.6 -17.4°
Reaches altitude 10° 01:53:01 10° 343° (NNW) 1,902 6.6 -17.1°
Maximum altitude 01:57:08 57° 266° (W) 692 3.5 -16.7°
Enters shadow 01:58:48 32° 202° (SSW) 999 4.1 -16.6°
